WS Maaseik 1 Meer informatie WS Maaseik 1


WS Maaseik 2 Meer informatie WS Maaseik 2


Regen radar Meer informatie rain snow radar


Bezoek onze andere website:

Vorige versie
weerstation Maaseik


Bezoek ook eens deze sites:

Weerstation Geleen



Het weer levert geen direct gevaar op.    Er zijn geen waarschuwingen afgegeven.

15 daagse weersverwachting Plymouth (GB)

  • Overzicht
  • Per uur
  • 15 dagen
  • Extra
  • Vergelijk
  • Kaarten
  • Dagkaart
  • Meer »
  • Info
  • Statistieken
  • Directe link
    Temp 6h Neerslag Wind  
 08:03     17:58    Daglengte: 9:55 Vandaag
13:00
15°
 
10
warningclass
19:00
15°
27.0 mm
10
 08:05     17:57    Daglengte: 9:52 Morgen
01:00
14°
54.2 mm
8
07:00
13°
33.1 mm
6
13:00
13°
16.6 mm
7
19:00
12°
27.6 mm
7
 08:06     17:55    Daglengte: 9:49 Zaterdag 30 Okt
01:00
12°
66.4 mm
9
07:00
11°
87.7 mm
3
13:00
13°
22.8 mm
3
19:00
11°
22.8 mm
2
 08:08     17:53    Daglengte: 9:45 Zondag 31 Okt
01:00
12°
45.8 mm
7
06:00
13°
93.8 mm
8
warningclass
Locatie info
Region: England
Latitude: 50.3762°N
Longitude: -4.1366°E
14 masl
Postcode: PL4 8
Temp/Neerslag /Baro Onweer/Dauwpunt
    Temp Baro 1h Neerslag Dauwpunt Wind UV Bewolking  
 08:03     17:58    Daglengte: 9:55 Vandaag
13:00
15°
1004.5 hPa
48%
12.9°
10
Windvlaag: 17.1 m/s
76% warningclass
14:00
15°
1003.6 hPa
80%
13.0°
10
Windvlaag: 17.8 m/s
86% warningclass
15:00
15°
1002.5 hPa 1.7 mm
82%
13.0°
10
Windvlaag: 17.2 m/s
86% warningclass
16:00
15°
1001.8 hPa 3.2 mm
82%
13.2°
9
Windvlaag: 16.4 m/s
86%
17:00
15°
1001.0 hPa 5.1 mm
82%
13.2°
9
Windvlaag: 16.6 m/s
86%
18:00
15°
1000.3 hPa 7.2 mm
82%
13.2°
9
Windvlaag: 16.9 m/s
86%
19:00
15°
999.6 hPa 9.7 mm
82%
13.3°
10
Windvlaag: 16.8 m/s
86%
20:00
15°
999.0 hPa 8.4 mm
82%
13.3°
11
Windvlaag: 18.3 m/s
86% warningclass
21:00
15°
998.5 hPa 9.1 mm
82%
13.3°
11
Windvlaag: 18.7 m/s
86% warningclass
22:00
15°
997.8 hPa 8.8 mm
82%
13.2°
10
Windvlaag: 18.9 m/s
86% warningclass
23:00
15°
997.2 hPa 9.3 mm
82%
13.0°
9
Windvlaag: 16.2 m/s
86%
 08:05     17:57    Daglengte: 9:52 Morgen
00:00
14°
996.4 hPa 9.0 mm
82%
12.1°
8
Windvlaag: 15.6 m/s
86%
01:00
14°
995.3 hPa 9.6 mm
82%
12.2°
8
Windvlaag: 12.7 m/s
86%
02:00
14°
994.7 hPa 8.8 mm
82%
12.5°
8
Windvlaag: 13.8 m/s
86%
03:00
14°
994.3 hPa 7.8 mm
82%
12.0°
8
Windvlaag: 13.8 m/s
86%
04:00
14°
993.6 hPa
82%
12.2°
7
Windvlaag: 13.4 m/s
86%
05:00
14°
993.2 hPa
82%
10.8°
6
Windvlaag: 9.9 m/s
86%
06:00
13°
993.3 hPa 8.1 mm
82%
8.8°
5
Windvlaag: 6.1 m/s
86%
07:00
13°
993.6 hPa 8.3 mm
82%
8.2°
6
Windvlaag: 3.5 m/s
85%
08:00
12°
994.1 hPa 8.4 mm
82%
8.7°
6
Windvlaag: 5.7 m/s
49%
09:00
12°
995.3 hPa 8.2 mm
75%
9.1°
6
Windvlaag: 2.6 m/s
63%
10:00
12°
996.6 hPa
67%
8.8°
7
Windvlaag: 1 m/s
52%
11:00
12°
997.4 hPa
38%
8.5°
6
Windvlaag: 0.5 m/s
10%
12:00
13°
997.8 hPa
20%
9.2°
6
Windvlaag: 0.7 m/s
12%
13:00
13°
997.8 hPa
14%
9.2°
7
Windvlaag: 5.8 m/s
13%
14:00
13°
998.1 hPa
16%
10.1°
7
Windvlaag: 6 m/s
38%
15:00
13°
998.1 hPa
27%
10.3°
6
Windvlaag: 7.2 m/s
51%
16:00
13°
998.3 hPa
68%
10.3°
6
Windvlaag: 9.8 m/s
60%
17:00
13°
998.6 hPa 9.0 mm
79%
10.2°
6
Windvlaag: 10 m/s
55%
18:00
12°
998.5 hPa 9.5 mm
78%
10.3°
7
Windvlaag: 13 m/s
71%
19:00
12°
998.6 hPa 9.2 mm
75%
10.2°
7
Windvlaag: 15.6 m/s
69%
20:00
12°
998.4 hPa 9.3 mm
79%
10.4°
7
Windvlaag: 14.1 m/s
86%
21:00
12°
998.0 hPa 10.2 mm
80%
10.4°
8
Windvlaag: 13.8 m/s
86%
22:00
12°
997.6 hPa 11.1 mm
82%
10.3°
8
Windvlaag: 15.6 m/s
86%
23:00
12°
997.2 hPa 11.6 mm
82%
10.3°
8
Windvlaag: 15.7 m/s
85%
 08:06     17:55    Daglengte: 9:49 Zaterdag 30 Okt
00:00
12°
996.7 hPa 11.8 mm
82%
10.6°
9
Windvlaag: 15.7 m/s
86%
01:00
12°
995.7 hPa 12.5 mm
82%
10.0°
9
Windvlaag: 14.7 m/s
86%
02:00
13°
994.8 hPa 12.4 mm
82%
10.0°
10
Windvlaag: 15.5 m/s
86%
03:00
12°
994.2 hPa 12.8 mm
82%
9.8°
9
Windvlaag: 14.9 m/s
86%
04:00
12°
993.2 hPa 15.9 mm
82%
9.4°
7
Windvlaag: 13.4 m/s
86%
05:00
12°
992.8 hPa 17.8 mm
82%
10.2°
6
Windvlaag: 11.6 m/s
86%
06:00
12°
992.8 hPa 14.8 mm
80%
9.3°
4
Windvlaag: 4.5 m/s
86%
07:00
11°
992.9 hPa 14.0 mm
75%
8.6°
3
Windvlaag: 5.7 m/s
58%
08:00
11°
992.8 hPa
22%
8.4°
3
Windvlaag: -1.7 m/s
36%
09:00
11°
993.3 hPa
17%
8.3°
3
Windvlaag: -1.1 m/s
47%
10:00
11°
994.4 hPa 22.8 mm
26%
9.1°
2
Windvlaag: -0.8 m/s
82%
11:00
12°
994.6 hPa
36%
9.6°
3
Windvlaag: 1 m/s
77%
12:00
13°
994.9 hPa
35%
9.7°
3
Windvlaag: 1.3 m/s
80%
13:00
13°
995.3 hPa
37%
7.6°
3
Windvlaag: 1.4 m/s
86%
14:00
13°
995.4 hPa 22.8 mm
38%
7.1°
4
Windvlaag: 1.4 m/s
85%
15:00
13°
995.6 hPa
35%
7.6°
3
Windvlaag: 1.6 m/s
70%
16:00
13°
996.2 hPa
37%
7.2°
3
Windvlaag: 0.6 m/s
75%
17:00
13°
996.9 hPa
84%
7.7°
3
Windvlaag: 0.4 m/s
54%
18:00
11°
997.5 hPa
88%
8.0°
3
Windvlaag: 0.6 m/s
43%
19:00
11°
998.1 hPa
83%
7.7°
2
Windvlaag: 1.2 m/s
60%
20:00
11°
998.4 hPa
80%
8.0°
2
Windvlaag: 2.9 m/s
37%
21:00
11°
998.5 hPa
83%
7.9°
3
Windvlaag: 4.1 m/s
45%
22:00
11°
998.6 hPa
84%
7.9°
4
Windvlaag: 5.7 m/s
49%
23:00
12°
998.6 hPa
86%
8.2°
5
Windvlaag: 7.4 m/s
72%
 08:08     17:53    Daglengte: 9:45 Zondag 31 Okt
00:00
12°
998.2 hPa 22.8 mm
90%
8.8°
6
Windvlaag: 9.4 m/s
88%
01:00
12°
997.8 hPa 23.1 mm
93%
9.1°
7
Windvlaag: 11.6 m/s
96%
01:00
12°
996.8 hPa 13.8 mm
91%
9.8°
8
Windvlaag: 13.4 m/s
92%
02:00
12°
995.6 hPa 13.9 mm
90%
10.3°
9
Windvlaag: 15.6 m/s
100%
03:00
12°
994.3 hPa 14.6 mm
100%
10.7°
10
Windvlaag: 17.6 m/s
100% warningclass
04:00
13°
992.7 hPa 15.6 mm
100%
11.3°
11
Windvlaag: 18.9 m/s
100% warningclass
05:00
13°
991.5 hPa 17.7 mm
100%
12.1°
12
Windvlaag: 20.8 m/s
100% warningclass
06:00
13°
990.5 hPa 18.1 mm
100%
11.6°
8
Windvlaag: 18.8 m/s
100% warningclass
07:00
13°
989.6 hPa 28.3 mm
100%
12.5°
7
Windvlaag: 9.8 m/s
100%
08:00
13°
989.0 hPa 28.8 mm
100%
11.0°
4
Windvlaag: 9.2 m/s
99%
09:00
13°
988.4 hPa 27.8 mm
100%
11.3°
5
Windvlaag: 7.5 m/s
99%
10:00
13°
988.5 hPa 27.3 mm
100%
9.0°
6
Windvlaag: 8.5 m/s
91%
11:00
13°
988.7 hPa 27.5 mm
100%
9.3°
6
Windvlaag: 9.3 m/s
98%
Temp/Neerslag /Baro Onweer/Dauwpunt
    Temp Baro Neerslag Dauwpunt Wind Bewolking  
 08:03     17:58    Daglengte: 9:55 Vandaag
13:00
15°
1004.5 hPa   12.9°
10
76% warningclass
16:00
15°
1001.8 hPa 5.0 mm 13.2°
9
86%
19:00
15°
999.6 hPa 22.0 mm 13.3°
10
86%
22:00
15°
997.8 hPa 26.3 mm 13.2°
10
86% warningclass
 08:05     17:57    Daglengte: 9:52 Morgen
01:00
14°
995.3 hPa 27.9 mm 12.2°
8
86%
04:00
14°
993.6 hPa 16.6 mm 12.2°
7
86%
07:00
13°
993.6 hPa 16.5 mm 8.2°
6
85%
10:00
12°
996.6 hPa 16.6 mm 8.8°
7
52%
13:00
13°
997.8 hPa   9.2°
7
13%
16:00
13°
998.3 hPa   10.3°
6
60%
19:00
12°
998.6 hPa 27.6 mm 10.2°
7
69%
22:00
12°
997.6 hPa 30.6 mm 10.3°
8
86%
 08:06     17:55    Daglengte: 9:49 Zaterdag 30 Okt
01:00
12°
995.7 hPa 35.8 mm 10.0°
9
86%
04:00
12°
993.2 hPa 41.0 mm 9.4°
7
86%
07:00
11°
992.9 hPa 46.6 mm 8.6°
3
58%
10:00
11°
994.4 hPa 22.8 mm 9.1°
2
82%
13:00
13°
995.3 hPa   7.6°
3
86%
16:00
13°
996.2 hPa 22.8 mm 7.2°
3
75%
19:00
11°
998.1 hPa   7.7°
2
60%
22:00
11°
998.6 hPa   7.9°
4
49%
 08:08     17:53    Daglengte: 9:45 Zondag 31 Okt
01:00
12°
997.8 hPa 45.8 mm 9.1°
7
96%
03:00
12°
994.3 hPa 42.3 mm 10.7°
10
100% warningclass
06:00
13°
990.5 hPa 51.5 mm 11.6°
8
100% warningclass
09:00
13°
988.4 hPa 84.9 mm 11.3°
5
99%
12:00
13°
989.0 hPa 82.1 mm 6.6°
6
46%
15:00
12°
995.9 hPa 79.9 mm 7.9°
7
0%
18:00
10°
997.1 hPa 79.9 mm 8.1°
7
0%
21:00
10°
997.3 hPa 81.2 mm 8.7°
9
1%
 08:10     17:51    Daglengte: 9:41 Maandag 01 Nov
00:00
10°
996.9 hPa 82.2 mm 7.8°
9
1%
03:00
10°
996.8 hPa 82.7 mm 7.7°
10
0%
06:00
10°
997.9 hPa 83.2 mm 7.5°
10
0%
09:00
11°
1000.8 hPa 83.5 mm 7.6°
10
1%
12:00
13°
1003.0 hPa 83.7 mm 7.9°
11
0%
15:00
12°
1003.4 hPa 84.2 mm 8.0°
10
1%
18:00
11°
1003.5 hPa 85.2 mm 8.4°
10
1%
21:00
11°
1002.4 hPa 86.3 mm 9.5°
10
1%
 08:11     17:50    Daglengte: 9:39 Dinsdag 02 Nov
00:00
11°
999.6 hPa 88.0 mm 9.4°
10
1%
03:00
11°
995.8 hPa 90.7 mm 8.8°
11
1%
06:00
Voelt als: 6.0°
994.7 hPa 91.6 mm 7.7°
6
1%
09:00
10°
993.8 hPa 92.0 mm 7.9°
6
1%
12:00
11°
992.1 hPa 93.7 mm 7.8°
6
1%
15:00
10°
992.1 hPa 94.9 mm 7.4°
6
1%
18:00
Voelt als: 5.6°
994.8 hPa 95.4 mm 6.8°
8
1%
21:00
10°
Voelt als: 6.9°
997.1 hPa 96.1 mm 6.5°
7
1%
 08:13     17:48    Daglengte: 9:35 Woensdag 03 Nov
00:00
Voelt als: 5.6°
998.4 hPa 96.7 mm 8.1°
7
1%
03:00
Voelt als: 5.6°
1000.5 hPa 99.6 mm 7.5°
9
1%
06:00
Voelt als: 6.1°
1003.6 hPa 102.1 mm 7.4°
8
1%
09:00
10°
Voelt als: 6.1°
1007.4 hPa 102.6 mm 6.0°
8
1%
12:00
11°
1009.6 hPa 102.7 mm 5.7°
9
1%
15:00
10°
1010.5 hPa 102.7 mm 5.3°
9
0%
18:00
Voelt als: 4.9°
1012.6 hPa 102.7 mm 4.9°
5
0%
21:00
Voelt als: 4.7°
1014.6 hPa 102.8 mm 5.4°
5
0%
 08:15     17:46    Daglengte: 9:31 Donderdag 04 Nov
00:00
Voelt als: 4.4°
1015.7 hPa 102.8 mm 5.9°
5
0%
03:00
Voelt als: 4.6°
1016.9 hPa 102.9 mm 5.1°
5
0%
06:00
Voelt als: 5.9°
1018.3 hPa 103.0 mm 5.9°
4
1%
09:00
Voelt als: 6.9°
1020.4 hPa   6.0°
3
1%
12:00
11°
1021.0 hPa 206.1 mm 4.0°
5
0%
18:00
10°
Voelt als: 7.2°
1021.5 hPa 206.4 mm 5.9°
5
1%
 08:16     17:45    Daglengte: 9:29 Vrijdag 05 Nov
00:00
11°
1021.4 hPa 206.7 mm 9.0°
7
1%
06:00
11°
1021.3 hPa 207.1 mm 9.0°
6
1%
12:00
13°
1022.6 hPa 207.8 mm 10.6°
8
1%
18:00
11°
1024.1 hPa 208.5 mm 9.9°
5
1%
 08:18     17:43    Daglengte: 9:25 Zaterdag 06 Nov
00:00
11°
1024.6 hPa 208.6 mm 9.4°
4
1%
06:00
12°
1023.4 hPa 208.8 mm 9.9°
6
1%
12:00
13°
1022.8 hPa 209.0 mm 10.5°
10
1%
18:00
13°
1021.3 hPa 209.3 mm 11.4°
9
1%
 08:20     17:41    Daglengte: 9:21 Zondag 07 Nov
00:00
13°
1020.2 hPa 209.4 mm 11.6°
10
1%
06:00
Voelt als: 7.4°
1015.6 hPa 0.4 mm 7.2°
3
78%
12:00
11°
1015.8 hPa 0.7 mm 7.7°
3
76%
18:00
10°
Voelt als: 8.3°
1015.7 hPa 0.5 mm 7.5°
3
69%
 08:22     17:40    Daglengte: 9:18 Maandag 08 Nov
00:00
Voelt als: 7.7°
1016.8 hPa 0.5 mm 7.0°
2
51%
06:00
Voelt als: 7.1°
1017.2 hPa 0.5 mm 6.5°
2
57%
12:00
11°
1018.9 hPa 0.4 mm 6.9°
3
62%
18:00
Voelt als: 8.5°
1019.0 hPa 0.5 mm 7.1°
2
57%
 08:23     17:38    Daglengte: 9:15 Dinsdag 09 Nov
00:00
Voelt als: 8.0°
1019.6 hPa 0.8 mm 7.3°
2
64%
06:00
Voelt als: 6.9°
1019.6 hPa 0.8 mm 7.0°
3
61%
12:00
11°
1021.7 hPa 0.4 mm 7.3°
3
63%
18:00
Voelt als: 8.0°
1021.6 hPa 0.8 mm 7.2°
2
61%
 08:25     17:37    Daglengte: 9:12 Woensdag 10 Nov
00:00
Voelt als: 7.6°
1022.0 hPa 0.5 mm 7.2°
2
63%
06:00
Voelt als: 7.3°
1021.7 hPa 0.2 mm 7.0°
3
59%
12:00
12°
1022.2 hPa 0.3 mm 8.1°
3
63%
18:00
10°
Voelt als: 8.6°
1021.3 hPa 0.2 mm 7.7°
2
54%
 08:27     17:36    Daglengte: 9:09 Donderdag 11 Nov
00:00
Voelt als: 8.3°
1021.3 hPa 0.4 mm 7.2°
2
54%
06:00
Voelt als: 7.8°
1020.3 hPa 0.4 mm 6.9°
2
48%
12:00
11°
1020.6 hPa 0.2 mm 7.8°
2
58%
18:00
Voelt als: 9.1°
1020.0 hPa 0.2 mm 6.9°
1
52%
 08:28     17:34    Daglengte: 9:06 Vrijdag 12 Nov
00:00
1020.5 hPa 0.2 mm 6.0°
1
50%
06:00
1020.0 hPa 0.1 mm 6.1°
1
49%
  CAPE Lifted Index Hail Supercell Tornado SRH 3km CL BTM PRES CL TOP PRES Swiss DWD icon SMHI TS
 08:03     17:58    Daglengte: 9:55 Vandaag
13:00 3 J/kg 1.1 K 0 % 0 % 0 % 0 m²/s² 0 0 2.84 3
14:00 3 J/kg 1.9 K 0 % 0 % 0 % 0 m²/s² 0 0 1.99 3
15:00 0 J/kg 2.1 K 0 % 0 % 0 % 0 m²/s² 0 0 2.13 61
16:00 2 J/kg 1.9 K 0 % 0 % 0 % 0 m²/s² 0 0 1.93 61
17:00 0 J/kg 0.9 K 0 % 0 % 0 % 0 m²/s² 0 0 0.93 61
18:00 2 J/kg 0.9 K 0 % 0 % 0 % 0 m²/s² 0 0 0.93 61
19:00 31 J/kg 1.0 K 0 % 0 % 0 % 0 m²/s² 0 0 1.03 63
20:00 142 J/kg 1.4 K 0 % 0 % 0 % 0 m²/s² 0 0 1.85 61
21:00 139 J/kg 1.5 K 0 % 0 % 0 % 0 m²/s² 0 0 1.59 63
22:00 116 J/kg 1.1 K 0 % 0 % 0 % 0 m²/s² 0 0 1.13 63
23:00 93 J/kg 0.3 K 0 % 0 % 0 % 0 m²/s² 0 0 0.51 63
 08:05     17:57    Daglengte: 9:52 Morgen
00:00 59 J/kg 1.5 K 0 % 0 % 0 % 0 m²/s² 0 0 2.43 61
01:00 156 J/kg 0.7 K 0 % 0 % 0 % 0 m²/s² 0 0 1.87 61
02:00 271 J/kg -0.3 K 0 % 0 % 0 % 0 m²/s² 0 0 0.09 61
03:00 386 J/kg -0.3 K 0 % 0 % 0 % 0 m²/s² 0 0 0.15 61
04:00 417 J/kg -1.1 K 0 % 0 % 0 % 0 m²/s² 0 0 -0.5 63
05:00 552 J/kg -2.8 K 0 % 0 % 0 % 0 m²/s² 0 0 -2.59 80
06:00 339 J/kg -1.1 K 0 % 0 % 0 % 0 m²/s² 0 0 -0.14 80
07:00 292 J/kg -0.3 K 0 % 0 % 0 % 0 m²/s² 0 0 1.59 80
08:00 117 J/kg 0.6 K 0 % 0 % 0 % 0 m²/s² 0 0 1.62 80
09:00 85 J/kg 2.1 K 0 % 0 % 0 % 0 m²/s² 0 0 2.76 3
10:00 18 J/kg 3.5 K 0 % 0 % 0 % 0 m²/s² 0 0 5.54 2
11:00 148 J/kg 1.7 K 0 % 0 % 0 % 0 m²/s² 0 0 6.29 2
12:00 349 J/kg -0.2 K 0 % 0 % 0 % 0 m²/s² 0 0 4.63 2
13:00 258 J/kg 0.2 K 0 % 0 % 0 % 0 m²/s² 0 0 2.93 2
14:00 444 J/kg -1.3 K 0 % 0 % 0 % 0 m²/s² 0 0 -0.01 3
15:00 423 J/kg -1.8 K 0 % 0 % 0 % 0 m²/s² 0 0 -0.51 3
16:00 1 J/kg 2.2 K 0 % 0 % 0 % 0 m²/s² 0 0 2.89 3
17:00 58 J/kg 0.1 K 0 % 0 % 0 % 0 m²/s² 0 0 0.64 80
18:00 453 J/kg -1.5 K 0 % 0 % 0 % 0 m²/s² 0 0 -0.72 80
19:00 493 J/kg -1.8 K 0 % 0 % 0 % 0 m²/s² 0 0 -0.87 3
20:00 794 J/kg -2.6 K 0 % 0 % 0 % 0 m²/s² 0 0 -1.43 80
21:00 504 J/kg -2.0 K 0 % 0 % 0 % 0 m²/s² 0 0 -1.67 80
22:00 6 J/kg 1.4 K 0 % 0 % 0 % 0 m²/s² 0 0 2.09 80
23:00 12 J/kg 0.6 K 0 % 0 % 0 % 0 m²/s² 0 0 1.08 80
 08:06     17:55    Daglengte: 9:49 Zaterdag 30 Okt
00:00 93 J/kg 1.1 K 0 % 0 % 0 % 0 m²/s² 0 0 1.31 80
01:00 50 J/kg 1.3 K 0 % 0 % 0 % 0 m²/s² 0 0 1.57 80
02:00 66 J/kg 1.7 K 0 % 0 % 0 % 0 m²/s² 0 0 1.94 80
03:00 129 J/kg 1.4 K 0 % 0 % 0 % 0 m²/s² 0 0 1.55 80
04:00 104 J/kg 1.9 K 0 % 0 % 0 % 0 m²/s² 0 0 2.11 80
05:00 67 J/kg 2.9 K 0 % 0 % 0 % 0 m²/s² 0 0 3.11 80
06:00 8 J/kg 4.3 K 0 % 0 % 0 % 0 m²/s² 0 0 4.72 80
07:00 0 J/kg 4.5 K 0 % 0 % 0 % 0 m²/s² 0 0 5.25 80
08:00 1 J/kg 5.0 K 0 % 0 % 0 % 0 m²/s² 0 0 6.32 2
09:00 3 J/kg 4.8 K 0 % 0 % 0 % 0 m²/s² 0 0 6.87 3
10:00 19 J/kg 4.1 K 0 % 0 % 0 % 0 m²/s² 0 0 6.89 3
11:00 116 J/kg 3.3 K 0 % 0 % 0 % 0 m²/s² 0 0 7.32 2
12:00 242 J/kg 2.5 K 0 % 0 % 0 % 0 m²/s² 0 0 4.96 3
13:00 160 J/kg 3.2 K 0 % 0 % 0 % 0 m²/s² 0 0 5.39 3
14:00 131 J/kg 3.1 K 0 % 0 % 0 % 0 m²/s² 0 0 7.6 3
15:00 190 J/kg 2.5 K 0 % 0 % 0 % 0 m²/s² 0 0 6.37 3
16:00 189 J/kg 2.5 K 0 % 0 % 0 % 0 m²/s² 0 0 5.56 3
17:00 201 J/kg 2.7 K 0 % 0 % 0 % 0 m²/s² 0 0 6 3
18:00 185 J/kg 2.9 K 0 % 0 % 0 % 0 m²/s² 0 0 6.38 3
19:00 164 J/kg 3.0 K 0 % 0 % 0 % 0 m²/s² 0 0 6.21 3
20:00 186 J/kg 2.3 K 0 % 0 % 0 % 0 m²/s² 0 0 4.97 3
21:00 210 J/kg 2.0 K 0 % 0 % 0 % 0 m²/s² 0 0 3.86 3
22:00 198 J/kg 1.9 K 0 % 0 % 0 % 0 m²/s² 0 0 3.73 3
23:00 178 J/kg 1.6 K 0 % 0 % 0 % 0 m²/s² 0 0 3.61 3
 08:08     17:53    Daglengte: 9:45 Zondag 31 Okt
00:00 175 J/kg 1.1 K 0 % 0 % 0 % 0 m²/s² 0 0 3.26 80
01:00 179 J/kg 0.7 K 0 % 0 % 0 % 0 m²/s² 0 0 2.41 80
01:00 156 J/kg 0.8 K 0 % 0 % 0 % 0 m²/s² 0 0 1.97 80
02:00 171 J/kg 0.5 K 0 % 0 % 0 % 0 m²/s² 0 0 1.13 3
03:00 177 J/kg 0.1 K 0 % 0 % 0 % 0 m²/s² 0 0 0.34 80
04:00 262 J/kg -0.8 K 0 % 0 % 0 % 0 m²/s² 0 0 -0.5 61
05:00 275 J/kg -0.2 K 0 % 0 % 0 % 0 m²/s² 0 0 -0.08 63
06:00 96 J/kg 2.3 K 0 % 0 % 0 % 0 m²/s² 0 0 2.51 63
07:00 122 J/kg 1.7 K 0 % 0 % 0 % 0 m²/s² 0 0 2 63
08:00 0 J/kg 3.7 K 0 % 0 % 0 % 0 m²/s² 0 0 4.03 63
09:00 81 J/kg 1.1 K 0 % 0 % 0 % 0 m²/s² 0 0 2.57 80
10:00 98 J/kg 1.6 K 0 % 0 % 0 % 0 m²/s² 0 0 3.13 80
11:00 288 J/kg 0.6 K 0 % 0 % 0 % 0 m²/s² 0 0 2.64 61
Temp Baro Wind Neerslag
  EWN Forecast EWN WRFDA DWD ICON FMI HIRLAM MET Norway GFS
 08:03     17:58    Daglengte: 9:55 Vandaag
13:00 15.1° 1004.5 hPa 10.0 m/s 0.0 mm 14.7° 1003.2 hPa 10.4 m/s 0.9 mm 15.4° 1004.5 hPa 9.1 m/s -1.5 mm 15.3° 1005.0 hPa 10.3 m/s 0.0 mm 15.1° 1004.1 hPa 12.0 m/s
16:00 14.8° 1001.8 hPa 9.1 m/s 5.0 mm 14.6° 1001.3 hPa 9.2 m/s 9.4 mm 14.9° 1001.6 hPa 8.7 m/s 2.3 mm 15.2° 1002.2 hPa 9.0 m/s 0.0 mm 15.1° 1001.2 hPa 13.3 m/s
19:00 14.9° 999.6 hPa 9.8 m/s 22.0 mm 14.8° 999.3 hPa 11.2 m/s 54.6 mm 15.0° 999.8 hPa 8.6 m/s 13.9 mm 15.2° 999.6 hPa 9.9 m/s 0.0 mm 15.1° 999.5 hPa 10.9 m/s
22:00 14.7° 997.8 hPa 9.9 m/s 26.3 mm 14.6° 997.8 hPa 9.0 m/s 83.2 mm 14.8° 998.1 hPa 8.4 m/s 9.4 mm 15.1° 996.9 hPa 11.2 m/s 0.0 mm 13.8° 998.4 hPa 8.6 m/s
 08:05     17:57    Daglengte: 9:52 Morgen
01:00 14.3° 995.3 hPa 8.1 m/s 27.9 mm 14.7° 994.5 hPa 10.0 m/s 102.7 mm 14.3° 995.9 hPa 6.7 m/s 6.9 mm 15.2° 993.5 hPa 13.6 m/s 0.0 mm 14.3° 996.0 hPa 10.1 m/s
04:00 13.9° 993.6 hPa 7.1 m/s 16.6 mm 14.3° 993.0 hPa 9.3 m/s 107.9 mm 13.9° 993.9 hPa 6.1 m/s 5.7 mm 14.4° 992.5 hPa 9.4 m/s 0.0 mm 14.1° 994.5 hPa 10.1 m/s
07:00 12.7° 993.6 hPa 5.6 m/s 16.5 mm 13.3° 992.2 hPa 9.0 m/s 115.5 mm 13.6° 993.6 hPa 5.0 m/s 1.9 mm 12.6° 994.6 hPa 9.7 m/s 0.0 mm 12.7° 993.6 hPa 10.4 m/s
10:00 11.8° 996.6 hPa 7.1 m/s 16.6 mm 11.7° 996.9 hPa 6.3 m/s 118.4 mm 13.1° 995.6 hPa 5.3 m/s 0.7 mm 11.8° 997.4 hPa 8.9 m/s 0.0 mm 11.8° 997.9 hPa 9.3 m/s
13:00 13.4° 997.8 hPa 6.9 m/s 0.0 mm 14.0° 998.1 hPa 8.0 m/s 120.0 mm 14.1° 997.6 hPa 5.1 m/s 0.0 mm 13.4° 997.7 hPa 9.3 m/s 0.0 mm 13.4° 999.3 hPa 9.4 m/s
16:00 12.8° 998.3 hPa 6.3 m/s 0.0 mm 10.1° 997.9 hPa 4.6 m/s 124.2 mm 13.2° 998.4 hPa 5.5 m/s 0.1 mm 13.1° 997.8 hPa 6.9 m/s 0.0 mm 13.0° 998.9 hPa 9.0 m/s
19:00 12.2° 998.6 hPa 6.5 m/s 27.6 mm 12.3° 997.8 hPa 6.4 m/s 131.5 mm 12.1° 998.7 hPa 5.6 m/s 1.1 mm 12.5° 998.1 hPa 6.2 m/s 0.0 mm 12.5° 999.0 hPa 9.9 m/s
22:00 12.4° 997.6 hPa 8.3 m/s 30.6 mm 10.7° 997.8 hPa 9.1 m/s 140.3 mm 12.2° 997.7 hPa 6.3 m/s 3.3 mm 12.9° 997.0 hPa 8.4 m/s 0.0 mm 12.3° 998.6 hPa 11.0 m/s
 08:06     17:55    Daglengte: 9:49 Zaterdag 30 Okt
01:00 12.4° 995.7 hPa 8.9 m/s 35.8 mm 10.9° 996.0 hPa 4.3 m/s 151.9 mm 12.3° 996.0 hPa 7.9 m/s 6.3 mm 13.0° 993.3 hPa 10.6 m/s 0.0 mm 12.3° 996.7 hPa 10.7 m/s
04:00 12.4° 993.2 hPa 6.5 m/s 41.0 mm 11.0° 994.0 hPa 1.7 m/s 171.8 mm 12.5° 993.9 hPa 6.7 m/s 4.7 mm 12.9° 991.6 hPa 6.9 m/s 0.0 mm 11.7° 994.4 hPa 9.3 m/s
07:00 11.3° 992.9 hPa 2.9 m/s 46.6 mm 9.7° 993.5 hPa 1.5 m/s 199.2 mm 11.6° 994.5 hPa 2.9 m/s 3.2 mm 12.3° 992.3 hPa 4.7 m/s 0.0 mm 11.3° 993.4 hPa 4.0 m/s
10:00 11.0° 994.4 hPa 2.4 m/s 22.8 mm 11.1° 994.1 hPa 2.7 m/s 202.6 mm 11.8° 996.8 hPa 2.8 m/s 0.0 mm 11.1° 995.8 hPa 4.3 m/s
13:00 12.9° 995.3 hPa 3.2 m/s 0.0 mm 13.7° 995.1 hPa 4.2 m/s 202.7 mm 13.1° 997.3 hPa 3.3 m/s 0.0 mm 12.6° 997.1 hPa 4.9 m/s
16:00 12.9° 996.2 hPa 3.3 m/s 22.8 mm 13.4° 996.0 hPa 3.9 m/s 202.7 mm 13.1° 998.1 hPa 3.3 m/s 0.0 mm 12.4° 998.0 hPa 4.7 m/s
19:00 11.0° 998.1 hPa 2.2 m/s 0.0 mm 11.2° 998.0 hPa 2.5 m/s 202.7 mm 11.9° 999.0 hPa 2.2 m/s 0.1 mm 10.8° 999.7 hPa 3.5 m/s
22:00 11.3° 998.6 hPa 3.6 m/s 0.0 mm 12.6° 998.2 hPa 5.6 m/s 202.8 mm 11.6° 998.9 hPa 1.9 m/s 0.1 mm 11.3° 999.9 hPa 6.0 m/s
 08:08     17:53    Daglengte: 9:45 Zondag 31 Okt
01:00 11.9° 997.8 hPa 6.9 m/s 45.8 mm 13.1° 996.7 hPa 9.4 m/s 203.0 mm 11.8° 997.9 hPa 3.6 m/s 1.1 mm 12.6° 998.1 hPa 9.9 m/s
03:00 12.5° 994.3 hPa 10.0 m/s 42.3 mm 13.2° 993.5 hPa 11.8 m/s 204.5 mm 12.5° 994.4 hPa 5.5 m/s 1.1 mm 12.9° 995.3 hPa 12.7 m/s
06:00 12.9° 990.5 hPa 8.0 m/s 51.5 mm 12.3° 992.3 hPa 6.4 m/s 218.1 mm 13.5° 990.3 hPa 7.4 m/s 11.1 mm 13.1° 993.1 hPa 12.4 m/s
09:00 13.4° 988.4 hPa 5.1 m/s 84.9 mm 11.6° 992.9 hPa 3.3 m/s 241.3 mm 13.9° 987.2 hPa 5.6 m/s 6.7 mm 10.9° 994.2 hPa 6.9 m/s
12:00 12.7° 989.0 hPa 6.4 m/s 82.1 mm 13.3° 993.7 hPa 6.2 m/s 242.4 mm 12.6° 987.8 hPa 6.4 m/s 2.0 mm 12.2° 995.0 hPa 8.0 m/s
15:00 12.1° 995.9 hPa 7.1 m/s 79.9 mm 12.1° 995.9 hPa 7.1 m/s 79.9 mm
18:00 10.5° 997.1 hPa 6.9 m/s 79.9 mm 10.5° 997.1 hPa 6.9 m/s 79.9 mm
21:00 10.4° 997.3 hPa 8.6 m/s 81.2 mm 10.4° 997.3 hPa 8.6 m/s 81.2 mm
 08:10     17:51    Daglengte: 9:41 Maandag 01 Nov
00:00 10.1° 996.9 hPa 9.0 m/s 82.2 mm 10.1° 996.9 hPa 9.0 m/s 82.2 mm
03:00 10.4° 996.8 hPa 10.2 m/s 82.7 mm 10.4° 996.8 hPa 10.2 m/s 82.7 mm
06:00 10.4° 997.9 hPa 10.4 m/s 83.2 mm 10.4° 997.9 hPa 10.4 m/s 83.2 mm
09:00 11.5° 1000.8 hPa 10.1 m/s 83.5 mm 11.5° 1000.8 hPa 10.1 m/s 83.5 mm
12:00 12.7° 1003.0 hPa 10.7 m/s 83.7 mm 12.7° 1003.0 hPa 10.7 m/s 83.7 mm
15:00 11.8° 1003.4 hPa 10.1 m/s 84.2 mm 11.8° 1003.4 hPa 10.1 m/s 84.2 mm
18:00 11.0° 1003.5 hPa 9.6 m/s 85.2 mm 11.0° 1003.5 hPa 9.6 m/s 85.2 mm
21:00 10.9° 1002.4 hPa 9.8 m/s 86.3 mm 10.9° 1002.4 hPa 9.8 m/s 86.3 mm
 08:11     17:50    Daglengte: 9:39 Dinsdag 02 Nov
00:00 11.2° 999.6 hPa 9.6 m/s 88.0 mm 11.2° 999.6 hPa 9.6 m/s 88.0 mm
03:00 10.6° 995.8 hPa 10.6 m/s 90.7 mm 10.6° 995.8 hPa 10.6 m/s 90.7 mm
06:00 9.1° 994.7 hPa 6.3 m/s 91.6 mm 9.1° 994.7 hPa 6.3 m/s 91.6 mm
09:00 10.3° 993.8 hPa 5.9 m/s 92.0 mm 10.3° 993.8 hPa 5.9 m/s 92.0 mm
12:00 10.5° 992.1 hPa 6.3 m/s 93.7 mm 10.5° 992.1 hPa 6.3 m/s 93.7 mm
15:00 10.1° 992.1 hPa 6.3 m/s 94.9 mm 10.1° 992.1 hPa 6.3 m/s 94.9 mm
18:00 9.2° 994.8 hPa 8.4 m/s 95.4 mm 9.2° 994.8 hPa 8.4 m/s 95.4 mm
21:00 9.9° 997.1 hPa 6.8 m/s 96.1 mm 9.9° 997.1 hPa 6.8 m/s 96.1 mm
 08:13     17:48    Daglengte: 9:35 Woensdag 03 Nov
00:00 9.0° 998.4 hPa 7.3 m/s 96.7 mm 9.0° 998.4 hPa 7.3 m/s 96.7 mm
03:00 9.4° 1000.5 hPa 9.1 m/s 99.6 mm 9.4° 1000.5 hPa 9.0 m/s 99.6 mm
06:00 9.5° 1003.6 hPa 7.6 m/s 102.1 mm 9.5° 1003.6 hPa 7.6 m/s 102.1 mm
09:00 9.6° 1007.4 hPa 8.2 m/s 102.6 mm 9.6° 1007.4 hPa 8.2 m/s 102.6 mm
12:00 10.7° 1009.6 hPa 8.5 m/s 102.7 mm 10.7° 1009.6 hPa 8.5 m/s 102.7 mm
15:00 10.2° 1010.5 hPa 8.6 m/s 102.7 mm 10.3° 1010.5 hPa 8.6 m/s 102.7 mm
18:00 8.0° 1012.6 hPa 5.4 m/s 102.7 mm 8.0° 1012.6 hPa 5.4 m/s 102.7 mm
21:00 7.6° 1014.6 hPa 4.8 m/s 102.8 mm 7.6° 1014.6 hPa 4.8 m/s 102.8 mm
 08:15     17:46    Daglengte: 9:31 Donderdag 04 Nov
00:00 7.3° 1015.7 hPa 4.8 m/s 102.8 mm 7.3° 1015.7 hPa 4.8 m/s 102.8 mm
03:00 7.5° 1016.9 hPa 4.6 m/s 102.9 mm 7.5° 1016.9 hPa 4.6 m/s 102.9 mm
06:00 8.3° 1018.3 hPa 4.1 m/s 103.0 mm 8.3° 1018.3 hPa 4.1 m/s 103.0 mm
09:00 8.9° 1020.4 hPa 3.4 m/s 103.0 mm 8.9° 1020.4 hPa 3.4 m/s 103.0 mm
12:00 10.7° 1021.0 hPa 4.9 m/s 103.1 mm 10.7° 1021.0 hPa 4.9 m/s 103.1 mm
18:00 9.7° 1021.5 hPa 4.9 m/s 103.2 mm 9.7° 1021.5 hPa 4.9 m/s 103.2 mm
 08:16     17:45    Daglengte: 9:29 Vrijdag 05 Nov
00:00 10.9° 1021.4 hPa 7.1 m/s 103.4 mm 10.9° 1021.4 hPa 7.1 m/s 103.4 mm
06:00 10.6° 1021.3 hPa 6.0 m/s 103.6 mm 10.6° 1021.3 hPa 6.0 m/s 103.6 mm
12:00 13.3° 1022.6 hPa 8.2 m/s 104.0 mm 13.3° 1022.6 hPa 8.2 m/s 104.0 mm
18:00 11.0° 1024.1 hPa 4.8 m/s 104.3 mm 11.0° 1024.1 hPa 4.8 m/s 104.3 mm
 08:18     17:43    Daglengte: 9:25 Zaterdag 06 Nov
00:00 11.2° 1024.6 hPa 3.8 m/s 104.3 mm 11.2° 1024.6 hPa 3.8 m/s 104.3 mm
06:00 11.9° 1023.4 hPa 6.3 m/s 104.4 mm 11.9° 1023.4 hPa 6.3 m/s 104.4 mm
12:00 13.3° 1022.8 hPa 9.8 m/s 104.6 mm 13.3° 1022.8 hPa 9.8 m/s 104.6 mm
18:00 13.0° 1021.3 hPa 9.1 m/s 104.7 mm 13.0° 1021.3 hPa 9.1 m/s 104.7 mm
 08:20     17:41    Daglengte: 9:21 Zondag 07 Nov
00:00 13.4° 1020.2 hPa 9.6 m/s 104.7 mm 13.4° 1020.2 hPa 9.6 m/s 104.7 mm
06:00 9.1° 1015.6 hPa 3.1 m/s 0.4 mm
12:00 11.4° 1015.8 hPa 3.4 m/s 0.7 mm
18:00 9.8° 1015.7 hPa 2.9 m/s 0.5 mm
 08:22     17:40    Daglengte: 9:18 Maandag 08 Nov
00:00 8.9° 1016.8 hPa 2.2 m/s 0.5 mm
06:00 8.4° 1017.2 hPa 2.3 m/s 0.5 mm
12:00 10.9° 1018.9 hPa 2.7 m/s 0.4 mm
18:00 9.4° 1019.0 hPa 2.0 m/s 0.5 mm
 08:23     17:38    Daglengte: 9:15 Dinsdag 09 Nov
00:00 9.0° 1019.6 hPa 2.0 m/s 0.8 mm
06:00 8.7° 1019.6 hPa 3.1 m/s 0.8 mm
12:00 11.2° 1021.7 hPa 2.9 m/s 0.4 mm
18:00 9.1° 1021.6 hPa 2.1 m/s 0.8 mm
 08:25     17:37    Daglengte: 9:12 Woensdag 10 Nov
00:00 8.9° 1022.0 hPa 2.4 m/s 0.5 mm
06:00 8.7° 1021.7 hPa 2.5 m/s 0.2 mm
12:00 11.6° 1022.2 hPa 2.8 m/s 0.3 mm
18:00 9.8° 1021.3 hPa 2.4 m/s 0.2 mm
 08:27     17:36    Daglengte: 9:09 Donderdag 11 Nov
00:00 9.3° 1021.3 hPa 2.1 m/s 0.4 mm
06:00 8.7° 1020.3 hPa 1.8 m/s 0.4 mm
12:00 11.4° 1020.6 hPa 1.8 m/s 0.2 mm
18:00 9.1° 1020.0 hPa 1.1 m/s 0.2 mm
 08:28     17:34    Daglengte: 9:06 Vrijdag 12 Nov
00:00 8.2° 1020.5 hPa 0.8 m/s 0.2 mm
06:00 8.2° 1020.0 hPa 0.9 m/s 0.1 mm
FMI Hirlam - 7.5 km EWN WRFDA - 12 km DWD ICON - 7 km GFS - 25 km Basiskaart